Amity Harbor, New York
Current Conditions -  °F | °C
As of 1:53 PM on Saturday 20 Dec 2014 (Local Time) from KFRG Reporting Station
Overcast Overcast  
Wind Chill: 27°   Ceiling: 2600
Heat Index: 32°   Visibility: 10mi
Dew Point: 21°   Wind: 5mph
Humidity: 64%   Direction: 310°NW
Pressure: 30.26"   Gusts: NA
Location:  40.6858°N, 73.4152°W
Report Text: KFRG 201853Z 31004KT 10SM OVC026 00/M06 A3026 RMK AO2 SLP246 T00001061
Loading
Personal Weather Stations






























Interactive Weather Map New forecast layout! Learn more

10-Day Weather Forecast

Advertisements
Track Severe Weather on mobile